Robstown, TX

9:00 PM CDT on August 23, 2016 (GMT -0500)
Robstown

Weather History for KRBO - December, 2012

Change the Weather History Date:

Wednesday, December 5, 2012

  Actual Average (KCRP) Record (KCRP)
Temperature  
Mean Temperature 66 °F 60 °F  
Max Temperature 78 °F 70 °F 91 °F (1977)
Min Temperature 54 °F 50 °F 32 °F (2009)
Degree Days  
Heating Degree Days 0 7  
Month to date heating degree days 31  
Since 1 July heating degree days 132  
Cooling Degree Days 1 2  
Month to date cooling degree days 10  
Year to date cooling degree days 3485  
Growing Degree Days 16 (Base 50)    
Moisture  
Dew Point 49 °F    
Average Humidity 58    
Maximum Humidity 94    
Minimum Humidity 26    
Precipitation  
Precipitation 0.00 in 0.05 in 0.88 in (1971)
Month to date precipitation 0.25  
Year to date precipitation 30.18  
Snow  
Snow 0.00 in - - ()
Month to date snowfall  
Since 1 July snowfall  
Snow Depth -    
Sea Level Pressure  
Sea Level Pressure 30.12 in    
Wind  
Wind Speed 7 mph (North)    
Max Wind Speed 13 mph    
Max Gust Speed -    
Visibility 10 miles    
Events      
T = Trace of Precipitation, MM = Missing Value Source: NWS Daily Summary

Daily Weather History Graph

Daily Weather History Graph

Search for Another Location

Airport or City:

Trip Planner

Search our weather history database for the weather conditions in past years. The results will help you decide how hot, cold, wet, or windy it might be!

Date:

Astronomy

Dec. 05, 2012 Rise Set
Actual Time 7:07 AM CST 5:35 PM CST
Civil Twilight 6:42 AM CST 6:01 PM CST
Nautical Twilight 6:13 AM CST 6:30 PM CST
Astronomical Twilight 5:44 AM CST 6:58 PM CST
Moon No Moon Rise 11:55 AM CST (12/5)
Length of Visible Light 11h 18m
Length of Day
10h 27m
Waning Gibbous, 59% of the Moon is Illuminated
Dec 5
Waning Gibbous
Dec 6
Last Quarter
Dec 13
New
Dec 19
First Quarter
Dec 28
Full

Hourly Weather History & Observations

Time (CST) Temp. Dew Point Humidity Pressure Visibility Wind Dir Wind Speed Gust Speed Precip Events Conditions
12:15 AM 68.0 °F 63.5 °F 85% 30.15 in 10.0 mi NNE 6.9 mph - N/A   Clear
12:35 AM 67.3 °F 63.0 °F 86% 30.16 in 10.0 mi NNE 6.9 mph - N/A   Clear
12:55 AM 66.7 °F 62.6 °F 86% 30.15 in 10.0 mi North 9.2 mph - N/A   Clear
1:15 AM 66.6 °F 62.6 °F 87% 30.15 in 10.0 mi North 10.4 mph - N/A   Clear
1:55 AM 64.8 °F 61.5 °F 89% 30.16 in 10.0 mi North 8.1 mph - N/A   Clear
2:15 AM 65.3 °F 60.8 °F 85% 30.17 in 10.0 mi North 9.2 mph - N/A   Clear
2:35 AM 64.4 °F 60.1 °F 86% 30.16 in 10.0 mi North 6.9 mph - N/A   Clear
2:55 AM 63.7 °F 59.4 °F 86% 30.17 in 10.0 mi North 3.5 mph - N/A   Clear
3:15 AM 61.7 °F 58.3 °F 89% 30.16 in 10.0 mi North 5.8 mph - N/A   Clear
3:35 AM 61.0 °F 57.2 °F 87% 30.16 in 10.0 mi NNW 6.9 mph - N/A   Clear
3:55 AM 60.3 °F 55.8 °F 85% 30.16 in 10.0 mi North 5.8 mph - N/A   Clear
4:15 AM 59.9 °F 54.7 °F 83% 30.16 in 10.0 mi North 6.9 mph - N/A   Clear
4:35 AM 59.5 °F 53.8 °F 81% 30.17 in 10.0 mi North 6.9 mph - N/A   Clear
4:55 AM 58.6 °F 52.9 °F 81% 30.17 in 10.0 mi North 5.8 mph - N/A   Clear
5:15 AM 57.9 °F 52.2 °F 81% 30.17 in 10.0 mi North 6.9 mph - N/A   Clear
5:55 AM 56.3 °F 50.5 °F 81% 30.18 in 10.0 mi North 5.8 mph - N/A   Clear
6:15 AM 55.8 °F 50.0 °F 81% 30.19 in 10.0 mi Calm Calm - N/A   Clear
6:35 AM 55.4 °F 49.3 °F 80% 30.20 in 10.0 mi NNW 4.6 mph - N/A   Clear
6:55 AM 54.3 °F 48.2 °F 80% 30.20 in 10.0 mi NW 5.8 mph - N/A   Clear
8:55 AM 59.9 °F 45.1 °F 58% 30.23 in 10.0 mi NNW 10.4 mph - N/A   Clear
9:15 AM 61.7 °F 44.4 °F 53% 30.24 in 10.0 mi NNW 12.7 mph - N/A   Clear
9:35 AM 62.8 °F 43.9 °F 50% 30.23 in 10.0 mi North 11.5 mph - N/A   Clear
9:55 AM 64.0 °F 44.2 °F 49% 30.22 in 10.0 mi North 12.7 mph - N/A   Clear
10:15 AM 65.5 °F 44.4 °F 46% 30.22 in 10.0 mi North 10.4 mph - N/A   Clear
10:35 AM 67.3 °F 44.2 °F 43% 30.22 in 10.0 mi North 10.4 mph - N/A   Clear
10:55 AM 68.9 °F 44.8 °F 42% 30.21 in 10.0 mi North 9.2 mph - N/A   Clear
11:15 AM 71.1 °F 45.1 °F 39% 30.20 in 10.0 mi North 10.4 mph - N/A   Clear
11:35 AM 72.5 °F 45.5 °F 38% 30.19 in 10.0 mi NNW 9.2 mph - N/A   Clear
11:55 AM 73.9 °F 45.9 °F 37% 30.18 in 10.0 mi North 9.2 mph - N/A   Clear
12:15 PM 73.9 °F 45.7 °F 36% 30.17 in 10.0 mi NNW 6.9 mph - N/A   Clear
12:35 PM 75.2 °F 44.6 °F 34% 30.15 in 10.0 mi North 6.9 mph - N/A   Clear
12:55 PM 75.9 °F 44.1 °F 32% 30.13 in 10.0 mi NNW 10.4 mph - N/A   Clear
1:15 PM 76.5 °F 43.9 °F 31% 30.12 in 10.0 mi NW 8.1 mph - N/A   Clear
1:55 PM 78.1 °F 43.0 °F 29% 30.10 in 10.0 mi North 9.2 mph - N/A   Clear
2:15 PM 77.9 °F 43.5 °F 29% 30.09 in 10.0 mi NNW 8.1 mph - N/A   Clear
2:35 PM 78.1 °F 43.7 °F 29% 30.08 in 10.0 mi NW 4.6 mph - N/A   Clear
2:55 PM 78.6 °F 43.5 °F 29% 30.07 in 10.0 mi WNW 10.4 mph - N/A   Clear
3:15 PM 78.3 °F 43.5 °F 29% 30.07 in 10.0 mi North 8.1 mph - N/A   Clear
3:35 PM 78.1 °F 43.7 °F 29% 30.06 in 10.0 mi NNW 5.8 mph - N/A   Clear
3:55 PM 78.8 °F 42.8 °F 28% 30.06 in 10.0 mi NNW 5.8 mph - N/A   Clear
4:15 PM 78.6 °F 42.1 °F 27% 30.06 in 10.0 mi NW 9.2 mph - N/A   Clear
4:35 PM 78.1 °F 41.2 °F 27% 30.05 in 10.0 mi NW 5.8 mph - N/A   Clear
4:55 PM 77.5 °F 40.5 °F 26% 30.05 in 10.0 mi North 8.1 mph - N/A   Clear
5:15 PM 76.3 °F 39.4 °F 26% 30.05 in 10.0 mi North 9.2 mph - N/A   Clear
5:35 PM 74.5 °F 38.5 °F 27% 30.05 in 10.0 mi North 5.8 mph - N/A   Clear
5:55 PM 72.3 °F 38.7 °F 29% 30.05 in 10.0 mi NNE 3.5 mph - N/A   Clear
6:15 PM 70.9 °F 38.7 °F 31% 30.05 in 10.0 mi North 3.5 mph - N/A   Clear
6:35 PM 70.0 °F 39.0 °F 32% 30.05 in 10.0 mi NNE 3.5 mph - N/A   Clear
6:55 PM 67.1 °F 37.9 °F 34% 30.07 in 10.0 mi East 8.1 mph - N/A   Clear
7:15 PM 65.7 °F 48.2 °F 53% 30.07 in 10.0 mi ESE 8.1 mph - N/A   Clear
7:35 PM 64.9 °F 51.8 °F 62% 30.07 in 10.0 mi ESE 6.9 mph - N/A   Clear
7:55 PM 64.0 °F 52.0 °F 65% 30.08 in 10.0 mi SE 4.6 mph - N/A   Clear
8:15 PM 61.9 °F 49.5 °F 64% 30.08 in 10.0 mi South 5.8 mph - N/A   Clear
8:35 PM 60.4 °F 47.3 °F 62% 30.08 in 10.0 mi South 3.5 mph - N/A   Clear
8:55 PM 59.5 °F 47.1 °F 63% 30.08 in 10.0 mi SSE 3.5 mph - N/A   Clear
9:15 PM 59.2 °F 49.1 °F 69% 30.08 in 10.0 mi SSE 3.5 mph - N/A   Clear
9:55 PM 58.5 °F 49.8 °F 73% 30.07 in 10.0 mi SE 4.6 mph - N/A   Clear
10:15 PM 58.5 °F 52.2 °F 80% 30.06 in 10.0 mi ESE 5.8 mph - N/A   Clear
10:35 PM 58.8 °F 53.8 °F 83% 30.06 in 10.0 mi ESE 5.8 mph - N/A   Clear
10:55 PM 59.0 °F 54.7 °F 86% 30.06 in 10.0 mi SE 4.6 mph - N/A   Clear
11:15 PM 59.0 °F 55.9 °F 90% 30.06 in 7.0 mi SE 3.5 mph - N/A   Clear
11:35 PM 58.6 °F 56.5 °F 93% 30.06 in 5.0 mi East 3.5 mph - N/A   Clear
11:55 PM 59.0 °F 57.2 °F 94% 30.05 in 4.0 mi ESE 3.5 mph - N/A   Clear